Time,TemperatureF,DewpointF,PressureIn,WindDirection,WindDirectionDegrees,WindSpeedMPH,WindSpeedGustMPH,Humidity,HourlyPrecipIn,Conditions,Clouds,dailyrainin,SoftwareType,DateUTC
2013-04-11 00:05:00,-999.0,-99.9,29.79,North,-999,-999.0,-999.0,-999,-99.99,,,0.00,weatherlink.com 1.10,2013-04-11 04:05:00,
2013-04-11 00:20:00,-999.0,-99.9,29.84,North,-999,-999.0,-999.0,-999,-99.99,,,0.00,weatherlink.com 1.10,2013-04-11 04:20:00,
2013-04-11 00:35:00,-999.0,-99.9,29.86,North,-999,-999.0,-999.0,-999,-99.99,,,0.00,weatherlink.com 1.10,2013-04-11 04:35:00,
2013-04-11 00:50:00,-999.0,-99.9,29.85,North,-999,-999.0,-999.0,-999,-99.99,,,0.00,weatherlink.com 1.10,2013-04-11 04:50:00,
2013-04-11 01:05:00,-999.0,-99.9,29.84,North,-999,-999.0,-999.0,-999,-99.99,,,0.00,weatherlink.com 1.10,2013-04-11 05:05:00,
2013-04-11 01:20:00,-999.0,-99.9,29.84,North,-999,-999.0,-999.0,-999,-99.99,,,0.00,weatherlink.com 1.10,2013-04-11 05:20:00,
2013-04-11 01:35:00,-999.0,-99.9,29.84,North,-999,-999.0,-999.0,-999,-99.99,,,0.00,weatherlink.com 1.10,2013-04-11 05:35:00,
2013-04-11 01:50:00,-999.0,-99.9,29.84,North,-999,-999.0,-999.0,-999,-99.99,,,0.00,weatherlink.com 1.10,2013-04-11 05:50:00,
2013-04-11 02:05:00,-999.0,-99.9,29.84,North,-999,-999.0,-999.0,-999,-99.99,,,0.00,weatherlink.com 1.10,2013-04-11 06:05:00,
2013-04-11 02:21:00,-999.0,-99.9,29.83,North,-999,-999.0,-999.0,-999,-99.99,,,0.00,weatherlink.com 1.10,2013-04-11 06:21:00,
2013-04-11 02:35:00,-999.0,-99.9,29.85,North,-999,-999.0,-999.0,-999,-99.99,,,0.00,weatherlink.com 1.10,2013-04-11 06:35:00,
2013-04-11 02:50:00,-999.0,-99.9,29.86,North,-999,-999.0,-999.0,-999,-99.99,,,0.00,weatherlink.com 1.10,2013-04-11 06:50:00,
2013-04-11 03:14:00,-999.0,-99.9,29.83,North,-999,-999.0,-999.0,-999,-99.99,,,0.00,weatherlink.com 1.10,2013-04-11 07:14:00,
2013-04-11 03:20:00,-999.0,-99.9,29.83,North,-999,-999.0,-999.0,-999,-99.99,,,0.00,weatherlink.com 1.10,2013-04-11 07:20:00,
2013-04-11 03:35:00,-999.0,-99.9,29.83,North,-999,-999.0,-999.0,-999,-99.99,,,0.00,weatherlink.com 1.10,2013-04-11 07:35:00,
2013-04-11 03:50:00,-999.0,-99.9,29.83,North,-999,-999.0,-999.0,-999,-99.99,,,0.00,weatherlink.com 1.10,2013-04-11 07:50:00,
2013-04-11 04:05:00,-999.0,-99.9,29.83,North,-999,-999.0,-999.0,-999,-99.99,,,0.00,weatherlink.com 1.10,2013-04-11 08:05:00,
2013-04-11 04:20:00,-999.0,-99.9,29.82,North,-999,-999.0,-999.0,-999,-99.99,,,0.00,weatherlink.com 1.10,2013-04-11 08:20:00,
2013-04-11 04:35:00,-999.0,-99.9,29.82,North,-999,-999.0,-999.0,-999,-99.99,,,0.00,weatherlink.com 1.10,2013-04-11 08:35:00,
2013-04-11 04:50:00,-999.0,-99.9,29.81,North,-999,-999.0,-999.0,-999,-99.99,,,0.00,weatherlink.com 1.10,2013-04-11 08:50:00,
2013-04-11 05:05:00,-999.0,-99.9,29.80,North,-999,-999.0,-999.0,-999,-99.99,,,0.00,weatherlink.com 1.10,2013-04-11 09:05:00,
2013-04-11 05:20:00,-999.0,-99.9,29.81,North,-999,-999.0,-999.0,-999,-99.99,,,0.00,weatherlink.com 1.10,2013-04-11 09:20:00,
2013-04-11 05:35:00,-999.0,-99.9,29.81,North,-999,-999.0,-999.0,-999,-99.99,,,0.00,weatherlink.com 1.10,2013-04-11 09:35:00,
2013-04-11 05:50:00,-999.0,-99.9,29.80,North,-999,-999.0,-999.0,-999,-99.99,,,0.00,weatherlink.com 1.10,2013-04-11 09:50:00,
2013-04-11 06:05:00,-999.0,-99.9,29.80,North,-999,-999.0,-999.0,-999,-99.99,,,0.00,weatherlink.com 1.10,2013-04-11 10:05:00,
2013-04-11 06:20:00,-999.0,-99.9,29.80,North,-999,-999.0,-999.0,-999,-99.99,,,0.00,weatherlink.com 1.10,2013-04-11 10:20:00,
2013-04-11 06:35:00,-999.0,-99.9,29.80,North,-999,-999.0,-999.0,-999,-99.99,,,0.00,weatherlink.com 1.10,2013-04-11 10:35:00,
2013-04-11 06:50:00,-999.0,-99.9,29.82,North,-999,-999.0,-999.0,-999,-99.99,,,0.00,weatherlink.com 1.10,2013-04-11 10:50:00,
2013-04-11 07:05:00,-999.0,-99.9,29.83,North,-999,-999.0,-999.0,-999,-99.99,,,0.00,weatherlink.com 1.10,2013-04-11 11:05:00,
2013-04-11 07:20:00,-999.0,-99.9,29.83,North,-999,-999.0,-999.0,-999,-99.99,,,0.00,weatherlink.com 1.10,2013-04-11 11:20:00,
2013-04-11 07:35:00,-999.0,-99.9,29.83,North,-999,-999.0,-999.0,-999,-99.99,,,0.00,weatherlink.com 1.10,2013-04-11 11:35:00,
2013-04-11 07:50:00,-999.0,-99.9,29.83,North,-999,-999.0,-999.0,-999,-99.99,,,0.00,weatherlink.com 1.10,2013-04-11 11:50:00,
2013-04-11 08:05:00,64.0,58.0,29.84,WNW,290,0.0,-999.0,82,-99.99,,,0.00,weatherlink.com 1.10,2013-04-11 12:05:00,
2013-04-11 08:20:00,65.8,59.0,29.84,WNW,290,0.0,-999.0,79,-99.99,,,0.00,weatherlink.com 1.10,2013-04-11 12:20:00,
2013-04-11 08:35:00,67.8,60.0,29.84,WNW,289,0.0,-999.0,77,-99.99,,,0.00,weatherlink.com 1.10,2013-04-11 12:35:00,
2013-04-11 08:50:00,69.3,60.0,29.84,WNW,289,0.0,-999.0,73,-99.99,,,0.00,weatherlink.com 1.10,2013-04-11 12:50:00,
2013-04-11 09:05:00,70.6,61.0,29.84,WNW,289,0.0,-999.0,71,-99.99,,,0.00,weatherlink.com 1.10,2013-04-11 13:05:00,
2013-04-11 09:20:00,62.7,52.0,29.84,NNE,16,0.0,-999.0,69,-99.99,,,0.00,weatherlink.com 1.10,2013-04-11 13:20:00,
2013-04-11 09:35:00,56.8,50.0,29.84,NNE,22,0.0,-999.0,79,-99.99,,,0.00,weatherlink.com 1.10,2013-04-11 13:35:00,
2013-04-11 09:50:00,56.2,50.0,29.84,NNE,29,0.0,-999.0,81,-99.99,,,0.00,weatherlink.com 1.10,2013-04-11 13:50:00,
2013-04-11 10:05:00,57.4,52.0,29.85,NNE,29,0.0,-999.0,81,-99.99,,,0.00,weatherlink.com 1.10,2013-04-11 14:05:00,
2013-04-11 10:20:00,59.1,53.0,29.84,ENE,57,0.0,-999.0,80,-99.99,,,0.00,weatherlink.com 1.10,2013-04-11 14:20:00,
2013-04-11 10:35:00,61.9,55.0,29.84,ENE,57,0.0,-999.0,79,-99.99,,,0.00,weatherlink.com 1.10,2013-04-11 14:35:00,
2013-04-11 10:50:00,61.8,54.0,29.84,ENE,57,0.0,-999.0,76,-99.99,,,0.00,weatherlink.com 1.10,2013-04-11 14:50:00,
2013-04-11 11:05:00,62.4,54.0,29.84,ENE,65,0.0,-999.0,74,-99.99,,,0.00,weatherlink.com 1.10,2013-04-11 15:05:00,
2013-04-11 11:20:00,62.3,55.0,29.84,ENE,78,0.0,-999.0,77,-99.99,,,0.00,weatherlink.com 1.10,2013-04-11 15:20:00,
2013-04-11 11:35:00,62.0,55.0,29.84,East,98,0.0,-999.0,77,-99.99,,,0.00,weatherlink.com 1.10,2013-04-11 15:35:00,
2013-04-11 11:50:00,60.6,53.0,29.84,East,98,2.0,-999.0,77,-99.99,,,0.00,weatherlink.com 1.10,2013-04-11 15:50:00,
2013-04-11 12:05:00,59.5,53.0,29.84,ESE,102,8.0,-999.0,79,-99.99,,,0.00,weatherlink.com 1.10,2013-04-11 16:05:00,
2013-04-11 12:20:00,57.9,52.0,29.84,East,101,10.0,-999.0,81,-99.99,,,0.00,weatherlink.com 1.10,2013-04-11 16:20:00,
2013-04-11 12:35:00,58.9,54.0,29.83,ESE,113,5.0,-999.0,83,-99.99,,,0.00,weatherlink.com 1.10,2013-04-11 16:35:00,
2013-04-11 12:50:00,58.7,53.0,29.83,East,98,7.0,-999.0,81,-99.99,,,0.00,weatherlink.com 1.10,2013-04-11 16:50:00,
2013-04-11 13:05:00,58.9,53.0,29.83,ESE,116,3.0,-999.0,81,-99.99,,,0.00,weatherlink.com 1.10,2013-04-11 17:05:00,
2013-04-11 13:20:00,57.7,52.0,29.84,SE,132,5.0,-999.0,82,-99.99,,,0.00,weatherlink.com 1.10,2013-04-11 17:20:00,
2013-04-11 13:35:00,58.8,53.0,29.84,SE,144,1.0,-999.0,82,-99.99,,,0.00,weatherlink.com 1.10,2013-04-11 17:35:00,
2013-04-11 13:50:00,57.1,54.0,29.84,ESE,122,15.0,-999.0,89,-99.99,,,0.00,weatherlink.com 1.10,2013-04-11 17:50:00,
2013-04-11 14:05:00,55.8,53.0,29.84,SSE,150,3.0,-999.0,91,-99.99,,,0.00,weatherlink.com 1.10,2013-04-11 18:05:00,
2013-04-11 14:20:00,54.9,53.0,29.84,ESE,122,8.0,-999.0,92,-99.99,,,0.00,weatherlink.com 1.10,2013-04-11 18:20:00,
2013-04-11 14:35:00,53.0,51.0,29.84,ESE,113,16.0,-999.0,92,-99.99,,,0.00,weatherlink.com 1.10,2013-04-11 18:35:00,
2013-04-11 14:50:00,52.4,51.0,29.84,ESE,110,14.0,-999.0,93,-99.99,,,0.00,weatherlink.com 1.10,2013-04-11 18:50:00,
2013-04-11 15:05:00,52.4,51.0,29.83,East,96,9.0,-999.0,94,-99.99,,,0.00,weatherlink.com 1.10,2013-04-11 19:05:00,
2013-04-11 15:20:00,51.9,51.0,29.83,ESE,104,13.0,-999.0,95,-99.99,,,0.00,weatherlink.com 1.10,2013-04-11 19:20:00,
2013-04-11 15:50:00,53.4,51.0,29.83,ESE,109,3.0,-999.0,92,-99.99,,,0.00,weatherlink.com 1.10,2013-04-11 19:50:00,
2013-04-11 16:05:00,52.9,50.0,29.83,East,84,19.0,-999.0,91,-99.99,,,0.00,weatherlink.com 1.10,2013-04-11 20:05:00,
2013-04-11 16:20:00,51.7,50.0,29.83,ESE,108,13.0,-999.0,92,-99.99,,,0.00,weatherlink.com 1.10,2013-04-11 20:20:00,
2013-04-11 16:35:00,51.5,50.0,29.83,ESE,123,15.0,-999.0,93,-99.99,,,0.00,weatherlink.com 1.10,2013-04-11 20:35:00,
2013-04-11 16:50:00,51.0,49.0,29.83,SE,146,6.0,-999.0,93,-99.99,,,0.00,weatherlink.com 1.10,2013-04-11 20:50:00,
2013-04-11 17:05:00,50.5,49.0,29.83,ESE,121,4.0,-999.0,94,-99.99,,,0.00,weatherlink.com 1.10,2013-04-11 21:05:00,
2013-04-11 17:20:00,49.9,49.0,29.83,ESE,116,7.0,-999.0,95,-99.99,,,0.00,weatherlink.com 1.10,2013-04-11 21:20:00,
2013-04-11 17:35:00,49.5,48.0,29.84,ESE,119,8.0,-999.0,95,-99.99,,,0.00,weatherlink.com 1.10,2013-04-11 21:35:00,
2013-04-11 17:50:00,49.3,48.0,29.83,SE,134,8.0,-999.0,95,-99.99,,,0.00,weatherlink.com 1.10,2013-04-11 21:50:00,
2013-04-11 18:05:00,49.1,48.0,29.84,ESE,117,1.0,-999.0,96,-99.99,,,0.00,weatherlink.com 1.10,2013-04-11 22:05:00,
2013-04-11 18:20:00,-999.0,-99.9,29.84,North,-999,-999.0,-999.0,-999,-99.99,,,0.00,weatherlink.com 1.10,2013-04-11 22:20:00,
2013-04-11 18:35:00,-999.0,-99.9,29.84,North,-999,-999.0,-999.0,-999,-99.99,,,0.00,weatherlink.com 1.10,2013-04-11 22:35:00,
2013-04-11 18:50:00,-999.0,-99.9,29.85,North,-999,-999.0,-999.0,-999,-99.99,,,0.00,weatherlink.com 1.10,2013-04-11 22:50:00,
2013-04-11 19:05:00,-999.0,-99.9,29.85,North,-999,-999.0,-999.0,-999,-99.99,,,0.00,weatherlink.com 1.10,2013-04-11 23:05:00,
2013-04-11 19:20:00,-999.0,-99.9,29.84,North,-999,-999.0,-999.0,-999,-99.99,,,0.00,weatherlink.com 1.10,2013-04-11 23:20:00,
2013-04-11 19:35:00,-999.0,-99.9,29.84,North,-999,-999.0,-999.0,-999,-99.99,,,0.00,weatherlink.com 1.10,2013-04-11 23:35:00,
2013-04-11 19:50:00,-999.0,-99.9,29.85,North,-999,-999.0,-999.0,-999,-99.99,,,0.00,weatherlink.com 1.10,2013-04-11 23:50:00,
2013-04-11 20:05:00,-999.0,-99.9,29.85,North,-999,-999.0,-999.0,-999,-99.99,,,0.00,weatherlink.com 1.10,2013-04-12 00:05:00,
2013-04-11 20:20:00,-999.0,-99.9,29.85,North,-999,-999.0,-999.0,-999,-99.99,,,0.00,weatherlink.com 1.10,2013-04-12 00:20:00,
2013-04-11 20:35:00,-999.0,-99.9,29.85,North,-999,-999.0,-999.0,-999,-99.99,,,0.00,weatherlink.com 1.10,2013-04-12 00:35:00,
2013-04-11 20:50:00,-999.0,-99.9,29.86,North,-999,-999.0,-999.0,-999,-99.99,,,0.00,weatherlink.com 1.10,2013-04-12 00:50:00,
2013-04-11 21:20:00,-999.0,-99.9,29.85,North,-999,-999.0,-999.0,-999,-99.99,,,0.00,weatherlink.com 1.10,2013-04-12 01:20:00,
2013-04-11 21:35:00,-999.0,-99.9,29.86,North,-999,-999.0,-999.0,-999,-99.99,,,0.00,weatherlink.com 1.10,2013-04-12 01:35:00,
2013-04-11 21:50:00,-999.0,-99.9,29.86,North,-999,-999.0,-999.0,-999,-99.99,,,0.00,weatherlink.com 1.10,2013-04-12 01:50:00,
2013-04-11 22:05:00,-999.0,-99.9,29.86,North,-999,-999.0,-999.0,-999,-99.99,,,0.00,weatherlink.com 1.10,2013-04-12 02:05:00,
2013-04-11 22:20:00,-999.0,-99.9,29.86,North,-999,-999.0,-999.0,-999,-99.99,,,0.00,weatherlink.com 1.10,2013-04-12 02:20:00,
2013-04-11 22:35:00,-999.0,-99.9,29.85,North,-999,-999.0,-999.0,-999,-99.99,,,0.00,weatherlink.com 1.10,2013-04-12 02:35:00,
2013-04-11 22:50:00,-999.0,-99.9,29.84,North,-999,-999.0,-999.0,-999,-99.99,,,0.00,weatherlink.com 1.10,2013-04-12 02:50:00,
2013-04-11 23:05:00,-999.0,-99.9,29.84,North,-999,-999.0,-999.0,-999,-99.99,,,0.00,weatherlink.com 1.10,2013-04-12 03:05:00,
2013-04-11 23:21:00,-999.0,-99.9,29.83,North,-999,-999.0,-999.0,-999,-99.99,,,0.00,weatherlink.com 1.10,2013-04-12 03:21:00,
2013-04-11 23:35:00,-999.0,-99.9,29.83,North,-999,-999.0,-999.0,-999,-99.99,,,0.00,weatherlink.com 1.10,2013-04-12 03:35:00,
2013-04-11 23:50:00,-999.0,-99.9,29.82,North,-999,-999.0,-999.0,-999,-99.99,,,0.00,weatherlink.com 1.10,2013-04-12 03:50:00,